Namest Nad Oslav, Czech Republic

10:31 AM CET on December 07, 2019 (GMT +0100)
Namest

Weather History for LKNA - August, 2019

Change the Weather History Date:

Thursday, August 8, 2019

  Actual Average (WUND) Record (WUND)
Temperature  
Mean Temperature 68 °F -  
Max Temperature 78 °F - - (-1)
Min Temperature 59 °F - - (-1)
Cooling Degree Days 4    
Growing Degree Days 18 (Base 50)    
Moisture  
Dew Point 54 °F    
Average Humidity 63    
Maximum Humidity 97    
Minimum Humidity 26    
Precipitation  
Precipitation 0.00 in - - ()
Sea Level Pressure  
Sea Level Pressure 29.91 in    
Wind  
Wind Speed 8 mph ()    
Max Wind Speed 18 mph    
Max Gust Speed -    
Visibility 10.5 miles    
Events      
Averages and records for this station are not official NWS values.
T = Trace of Precipitation, MM = Missing Value Source: Averaged Metar Reports

Daily Weather History Graph

Daily Weather History Graph

Search for Another Location

Airport or City:

Astronomy

Aug. 08, 2019 Rise Set
Actual Time 5:36 AM CEST 8:24 PM CEST
Civil Twilight 5:00 AM CEST 9:00 PM CEST
Nautical Twilight 4:13 AM CEST 9:47 PM CEST
Astronomical Twilight 3:16 AM CEST 10:43 PM CEST
Moon 2:39 PM CEST (8/8) No Moon Set
Length of Visible Light 16h 00m
Length of Day
14h 47m
First Quarter, 57% of the Moon is Illuminated
Aug 8
First Quarter
Aug 15
Full
Aug 23
Last Quarter
Aug 30
New
Sep 6
First Quarter

Hourly Weather History & Observations

Time (CEST) Temp. Dew Point Humidity Pressure Visibility Wind Dir Wind Speed Gust Speed Precip Events Conditions
12:00 AM 62 °F 60 °F 93% 29.81 in 12 mi SW 8.9 mph - -   Scattered Clouds
12:00 AM 62.6 °F 60.8 °F 94% 29.83 in - WSW 9.2 mph - N/A   Clear
1:00 AM 62 °F 61 °F 97% 29.82 in 12 mi West 17.9 mph - -   Partly Cloudy
1:00 AM 62.6 °F 60.8 °F 94% 29.83 in - West 13.8 mph - N/A   Clear
2:00 AM 60 °F 58 °F 90% 29.85 in 12 mi WNW 8.9 mph - -   Partly Cloudy
2:00 AM 60.8 °F 57.2 °F 88% 29.86 in - WNW 10.4 mph - N/A   Clear
3:00 AM 59 °F 58 °F 95% 29.86 in 12 mi WNW 6.7 mph - -   Scattered Clouds
3:00 AM 59.0 °F 57.2 °F 94% 29.89 in 6.2 mi West 5.8 mph - N/A   Mostly Cloudy
4:00 AM 59 °F 57 °F 92% 29.88 in 12 mi SW 6.7 mph - -   Scattered Clouds
4:00 AM 59.0 °F 57.2 °F 94% 29.89 in 6.2 mi SW 5.8 mph - N/A   Partly Cloudy
5:00 AM 60 °F 59 °F 96% 29.89 in 12 mi WNW 11.2 mph - -   Scattered Clouds
5:00 AM 60.8 °F 57.2 °F 88% 29.89 in 6.2 mi WNW 10.4 mph - N/A   Partly Cloudy
6:00 AM 60 °F 59 °F 96% 29.90 in 12 mi WNW 8.9 mph - -   Partly Cloudy
6:00 AM 59.0 °F 57.2 °F 94% 29.92 in - WNW 8.1 mph - N/A   Clear
7:00 AM 60 °F 57 °F 87% 29.92 in 31 mi West 8.9 mph - -   Scattered Clouds
7:00 AM 60.8 °F 57.2 °F 88% 29.92 in - West 9.2 mph - N/A   Clear
9:00 AM 65 °F 56 °F 66% 29.92 in 25 mi WNW 13.4 mph - -   Scattered Clouds
9:00 AM 64.4 °F 57.2 °F 77% 29.95 in 6.2 mi WNW 12.7 mph - N/A   Partly Cloudy
10:00 AM 67 °F 56 °F 58% 29.92 in 22 mi West 8.9 mph - -   Scattered Clouds
10:00 AM 66.2 °F 55.4 °F 68% 29.95 in 6.2 mi West 10.4 mph - N/A   Mostly Cloudy
11:00 AM 69 °F 54 °F 50% 29.91 in 19 mi West 4.5 mph - -   Scattered Clouds
11:00 AM 69.8 °F 55.4 °F 60% 29.95 in 6.2 mi NW 5.8 mph - N/A   Mostly Cloudy
11:02 AM 69.8 °F 55.4 °F 60% 29.95 in 6.2 mi West 4.6 mph - N/A   Mostly Cloudy
12:00 PM 73 °F 51 °F 35% 29.91 in 22 mi WSW 8.9 mph - -   Scattered Clouds
12:00 PM 73.4 °F 51.8 °F 47% 29.95 in 6.2 mi WSW 9.2 mph - N/A   Mostly Cloudy
1:00 PM 73.4 °F 51.8 °F 47% 29.95 in - West 6.9 mph - N/A   Clear
2:00 PM 75.2 °F 50.0 °F 41% 29.95 in - Variable 5.8 mph - N/A   Clear
3:00 PM 76 °F 48 °F 26% 29.89 in 22 mi West 11.2 mph - -   Partly Cloudy
3:00 PM 75.2 °F 48.2 °F 38% 29.95 in - NW 9.2 mph - N/A   Clear
4:00 PM 76 °F 48 °F 26% 29.88 in 22 mi South 4.5 mph - -   Partly Cloudy
4:00 PM 77.0 °F 48.2 °F 36% 29.95 in - SW 8.1 mph - N/A   Clear
5:00 PM 77 °F 49 °F 26% 29.88 in 22 mi WSW 6.7 mph - -   Scattered Clouds
5:00 PM 77.0 °F 48.2 °F 36% 29.95 in - WSW 4.6 mph - N/A   Clear
6:00 PM 76 °F 49 °F 27% 29.88 in 22 mi SW 6.7 mph - -   Scattered Clouds
7:00 PM 74 °F 51 °F 33% 29.88 in 19 mi West 4.5 mph - -   Scattered Clouds
7:00 PM 75.2 °F 50.0 °F 41% 29.95 in - West 5.8 mph - N/A   Clear
8:00 PM 74 °F 49 °F 30% 29.89 in 16 mi WNW 4.5 mph - -   Partly Cloudy
8:00 PM 75.2 °F 50.0 °F 41% 29.95 in - West 4.6 mph - N/A   Clear
9:00 PM 71.6 °F 50.0 °F 46% 29.95 in - South 2.3 mph - N/A   Clear
10:00 PM 72 °F 49 °F 34% 29.91 in 12 mi South 4.5 mph - -   Mostly Cloudy
10:00 PM 68.0 °F 53.6 °F 60% 29.95 in - South 3.5 mph - N/A   Clear
11:00 PM 69.8 °F 50.0 °F 49% 29.98 in - West 4.6 mph - N/A   Clear